�������l�o���
Date,Time,MP-1(��Sv/h),MP-2(��Sv/h),MP-3(��Sv/h),MP-4(��Sv/h),MP-5(��Sv/h),MP-6(��Sv/h),MP-7(��Sv/h),MP-8(��Sv/h),����,����(m/s),���J
2019/06/26,00:00,0.747,1.059,0.722,1.304,0.965,0.432,0.745,0.704,��쐼,6.0,��
2019/06/26,00:10,0.747,1.061,0.722,1.305,0.961,0.432,0.744,0.704,��쐼,5.7,��
2019/06/26,00:20,0.749,1.060,0.722,1.304,0.963,0.433,0.745,0.704,��,6.2,��
2019/06/26,00:30,0.747,1.062,0.721,1.304,0.961,0.430,0.746,0.704,��,6.4,��
2019/06/26,00:40,0.748,1.062,0.722,1.301,0.962,0.432,0.745,0.704,��,6.6,��
2019/06/26,00:50,0.749,1.059,0.724,1.304,0.962,0.432,0.744,0.705,��,5.9,��
2019/06/26,01:00,0.748,1.060,0.723,1.305,0.962,0.431,0.745,0.706,��,5.3,��
2019/06/26,01:10,0.746,1.059,0.722,1.302,0.961,0.431,0.744,0.704,��,5.6,��
2019/06/26,01:20,0.746,1.061,0.722,1.304,0.963,0.432,0.745,0.705,��,5.4,��
2019/06/26,01:30,0.748,1.059,0.723,1.303,0.964,0.432,0.745,0.705,��쐼,5.0,��
2019/06/26,01:40,0.748,1.061,0.723,1.303,0.962,0.432,0.745,0.705,��쐼,4.7,��
2019/06/26,01:50,0.748,1.061,0.723,1.303,0.962,0.433,0.743,0.705,��쐼,4.4,��
2019/06/26,02:00,0.746,1.061,0.721,1.303,0.963,0.431,0.744,0.705,��쐼,4.2,��
2019/06/26,02:10,0.746,1.059,0.721,1.303,0.964,0.431,0.745,0.705,�쐼,4.2,��
2019/06/26,02:20,0.747,1.061,0.723,1.301,0.962,0.433,0.744,0.705,��쐼,3.7,��
2019/06/26,02:30,0.749,1.060,0.721,1.304,0.961,0.433,0.744,0.705,��쐼,3.5,��
2019/06/26,02:40,0.747,1.059,0.722,1.299,0.961,0.431,0.743,0.705,��쐼,3.6,��
2019/06/26,02:50,0.747,1.059,0.724,1.303,0.962,0.431,0.744,0.705,��쐼,3.7,��
2019/06/26,03:00,0.747,1.058,0.723,1.305,0.961,0.433,0.745,0.705,��,3.6,��
2019/06/26,03:10,0.748,1.061,0.721,1.301,0.961,0.431,0.744,0.705,��쐼,4.8,��
2019/06/26,03:20,0.749,1.059,0.721,1.302,0.962,0.433,0.744,0.704,��,5.4,��
2019/06/26,03:30,0.747,1.060,0.723,1.304,0.961,0.432,0.746,0.706,��쐼,5.3,��
2019/06/26,03:40,0.747,1.058,0.721,1.305,0.961,0.431,0.745,0.705,��쐼,6.2,��
2019/06/26,03:50,0.747,1.059,0.722,1.302,0.962,0.430,0.743,0.705,��쐼,5.4,��
2019/06/26,04:00,0.745,1.058,0.722,1.301,0.962,0.430,0.744,0.705,��쐼,5.3,��
2019/06/26,04:10,0.747,1.057,0.723,1.303,0.962,0.430,0.742,0.706,��쐼,4.4,��
2019/06/26,04:20,0.746,1.059,0.721,1.303,0.961,0.432,0.745,0.704,��쐼,3.6,��
2019/06/26,04:30,0.746,1.059,0.720,1.302,0.963,0.431,0.746,0.705,��쐼,3.8,��
2019/06/26,04:40,0.746,1.060,0.720,1.301,0.963,0.431,0.745,0.705,��쐼,2.6,��
2019/06/26,04:50,0.747,1.055,0.720,1.301,0.962,0.431,0.744,0.705,��쐼,2.3,��
2019/06/26,05:00,0.746,1.060,0.721,1.303,0.961,0.431,0.744,0.705,��,1.7,��
2019/06/26,05:10,0.748,1.056,0.720,1.302,0.961,0.432,0.745,0.705,��쐼,0.9,��
2019/06/26,05:20,0.747,1.058,0.721,1.302,0.962,0.431,0.746,0.706,-,CALM,��
2019/06/26,05:30,0.749,1.058,0.721,1.302,0.962,0.431,0.745,0.706,�k�k��,1.2,��
2019/06/26,05:40,0.748,1.059,0.721,1.303,0.961,0.430,0.747,0.706,�k��,0.6,��
2019/06/26,05:50,0.746,1.059,0.723,1.304,0.962,0.432,0.746,0.708,-,CALM,��
2019/06/26,06:00,0.747,1.060,0.721,1.306,0.962,0.431,0.745,0.706,-,CALM,��
2019/06/26,06:10,0.748,1.059,0.723,1.303,0.962,0.432,0.745,0.706,-,CALM,��
2019/06/26,06:20,0.746,1.058,0.721,1.304,0.964,0.433,0.746,0.706,�쓌,0.9,��
2019/06/26,06:30,0.747,1.056,0.720,1.306,0.962,0.430,0.748,0.707,�쓌,1.2,��
2019/06/26,06:40,0.748,1.056,0.722,1.302,0.960,0.432,0.745,0.705,���쓌,1.1,��
2019/06/26,06:50,0.748,1.056,0.721,1.302,0.961,0.432,0.746,0.706,���쓌,0.9,��
2019/06/26,07:00,0.744,1.057,0.721,1.299,0.961,0.430,0.745,0.706,���쓌,1.2,��
2019/06/26,07:10,0.746,1.055,0.723,1.301,0.960,0.431,0.748,0.706,���쓌,1.4,��
2019/06/26,07:20,0.747,1.057,0.720,1.303,0.962,0.429,0.746,0.708,���쓌,2.6,��
2019/06/26,07:30,0.746,1.055,0.723,1.303,0.964,0.429,0.743,0.706,���쓌,1.7,��
2019/06/26,07:40,0.748,1.057,0.723,1.302,0.965,0.429,0.744,0.704,���쓌,2.8,��
2019/06/26,07:50,0.747,1.057,0.722,1.301,0.961,0.430,0.743,0.704,���쓌,2.6,��
2019/06/26,08:00,0.747,1.059,0.720,1.302,0.963,0.430,0.745,0.703,�쓌,2.9,��
2019/06/26,08:10,0.746,1.058,0.721,1.304,0.963,0.430,0.743,0.705,�쓌,3.0,��
2019/06/26,08:20,0.746,1.057,0.721,1.303,0.963,0.430,0.744,0.704,��쓌,3.4,��
2019/06/26,08:30,0.747,1.057,0.722,1.303,0.963,0.431,0.744,0.704,��쓌,4.0,��
2019/06/26,08:40,0.747,1.061,0.720,1.304,0.964,0.429,0.745,0.704,��쓌,4.0,��
2019/06/26,08:50,0.750,1.057,0.721,1.305,0.962,0.429,0.744,0.705,��쓌,3.7,��
2019/06/26,09:00,0.747,1.062,0.724,1.303,0.961,0.430,0.745,0.704,��쓌,4.0,��
2019/06/26,09:10,0.747,1.058,0.723,1.302,0.963,0.433,0.743,0.706,��쓌,3.6,��
2019/06/26,09:20,0.749,1.059,0.721,1.305,0.964,0.432,0.746,0.706,��쓌,5.7,��
2019/06/26,09:30,0.750,1.062,0.721,1.302,0.963,0.431,0.744,0.705,��쓌,5.9,��
2019/06/26,09:40,0.751,1.061,0.721,1.306,0.966,0.431,0.744,0.705,��쓌,7.5,��
2019/06/26,09:50,0.750,1.062,0.722,1.305,0.964,0.433,0.746,0.705,��쓌,7.6,��
2019/06/26,10:00,0.748,1.061,0.721,1.302,0.966,0.432,0.747,0.706,��,7.3,��
2019/06/26,10:10,0.751,1.064,0.723,1.307,0.965,0.432,0.747,0.707,��,6.4,��
2019/06/26,10:20,0.751,1.064,0.724,1.305,0.965,0.432,0.747,0.707,��,6.9,��
2019/06/26,10:30,0.750,1.061,0.721,1.308,0.968,0.434,0.747,0.708,��,6.8,��
2019/06/26,10:40,0.751,1.066,0.724,1.306,0.968,0.432,0.748,0.705,��,6.6,��
2019/06/26,10:50,0.751,1.066,0.724,1.306,0.966,0.433,0.747,0.706,��,7.4,��
2019/06/26,11:00,0.752,1.067,0.724,1.307,0.967,0.432,0.746,0.707,��,7.9,��
2019/06/26,11:10,0.752,1.065,0.724,1.306,0.969,0.433,0.746,0.705,��,8.1,��
2019/06/26,11:20,0.751,1.068,0.725,1.304,0.970,0.434,0.747,0.704,��,8.6,��
2019/06/26,11:30,0.752,1.066,0.724,1.303,0.971,0.432,0.747,0.704,��,6.6,��
2019/06/26,11:40,0.752,1.066,0.725,1.306,0.970,0.434,0.747,0.705,��,7.1,��
2019/06/26,11:50,0.753,1.066,0.727,1.305,0.972,0.432,0.747,0.706,��,8.6,��
2019/06/26,12:00,0.753,1.067,0.726,1.307,0.971,0.434,0.747,0.707,��,7.9,��
2019/06/26,12:10,0.752,1.071,0.726,1.306,0.970,0.436,0.747,0.705,��쓌,9.8,��
2019/06/26,12:20,0.753,1.069,0.726,1.308,0.972,0.433,0.748,0.707,��쓌,10.2,��
2019/06/26,12:30,0.754,1.072,0.727,1.309,0.973,0.433,0.748,0.707,��쓌,10.2,��
2019/06/26,12:40,0.753,1.071,0.726,1.308,0.973,0.433,0.749,0.707,��,10.2,��
2019/06/26,12:50,0.753,1.072,0.727,1.307,0.972,0.435,0.748,0.707,��,11.1,��
2019/06/26,13:00,0.754,1.071,0.726,1.308,0.973,0.435,0.748,0.706,��,11.7,��
2019/06/26,13:10,0.754,1.073,0.727,1.310,0.975,0.435,0.748,0.707,��쓌,12.7,��
2019/06/26,13:20,0.752,1.071,0.727,1.309,0.973,0.434,0.747,0.707,��쓌,13.8,��
2019/06/26,13:30,0.753,1.066,0.727,1.311,0.976,0.435,0.748,0.707,��쓌,14.2,��
2019/06/26,13:40,0.754,1.070,0.726,1.310,0.974,0.434,0.749,0.707,��쓌,13.9,��
2019/06/26,13:50,0.755,1.069,0.727,1.309,0.974,0.434,0.748,0.707,��쓌,11.6,��
2019/06/26,14:00,0.754,1.069,0.729,1.310,0.976,0.433,0.748,0.706,��,11.8,��
2019/06/26,14:10,0.755,1.070,0.728,1.313,0.975,0.435,0.749,0.708,��,13.8,��
2019/06/26,14:20,0.755,1.069,0.726,1.308,0.977,0.436,0.748,0.707,��,12.0,��
2019/06/26,14:30,0.754,1.074,0.728,1.311,0.976,0.435,0.747,0.707,��,10.2,��
2019/06/26,14:40,0.755,1.073,0.730,1.312,0.976,0.435,0.748,0.706,��쓌,9.9,��
2019/06/26,14:50,0.757,1.072,0.730,1.309,0.976,0.436,0.749,0.708,��쓌,13.0,��
2019/06/26,15:00,0.755,1.070,0.727,1.310,0.977,0.436,0.749,0.707,��,11.1,��
2019/06/26,15:10,0.756,1.070,0.729,1.312,0.978,0.436,0.749,0.709,��,10.9,��
2019/06/26,15:20,0.756,1.074,0.729,1.313,0.977,0.435,0.750,0.708,��쓌,11.6,��
2019/06/26,15:30,0.758,1.071,0.728,1.312,0.976,0.435,0.748,0.708,��,11.3,��
2019/06/26,15:40,0.755,1.073,0.729,1.315,0.978,0.436,0.750,0.707,��,10.8,��
2019/06/26,15:50,0.756,1.074,0.728,1.314,0.978,0.437,0.749,0.708,��,10.5,��
2019/06/26,16:00,0.756,1.074,0.731,1.315,0.976,0.438,0.750,0.707,��,9.0,��
2019/06/26,16:10,0.757,1.076,0.730,1.314,0.977,0.436,0.749,0.709,��,9.0,��
2019/06/26,16:20,0.757,1.076,0.729,1.312,0.978,0.435,0.750,0.707,��,10.0,��
2019/06/26,16:30,0.757,1.076,0.729,1.313,0.978,0.436,0.749,0.706,��,8.4,��
2019/06/26,16:40,0.758,1.074,0.731,1.313,0.979,0.436,0.749,0.707,��,10.2,��
2019/06/26,16:50,0.758,1.074,0.731,1.314,0.977,0.435,0.748,0.708,��,9.2,��
2019/06/26,17:00,0.758,1.074,0.731,1.314,0.980,0.436,0.749,0.707,��,9.4,��
2019/06/26,17:10,0.756,1.076,0.730,1.317,0.980,0.438,0.751,0.706,��,8.4,��
2019/06/26,17:20,0.756,1.075,0.732,1.313,0.982,0.439,0.747,0.709,��,8.1,��
2019/06/26,17:30,0.758,1.078,0.730,1.314,0.982,0.437,0.750,0.708,��,8.1,��
2019/06/26,17:40,0.758,1.077,0.732,1.316,0.981,0.436,0.749,0.709,��,8.5,��
2019/06/26,17:50,0.757,1.076,0.731,1.315,0.981,0.436,0.750,0.708,��,7.4,��
2019/06/26,18:00,0.757,1.078,0.730,1.316,0.979,0.436,0.749,0.709,��,6.9,��
2019/06/26,18:10,0.758,1.078,0.731,1.315,0.979,0.436,0.750,0.708,��,7.1,��
2019/06/26,18:20,0.758,1.077,0.730,1.317,0.977,0.437,0.751,0.708,��,7.7,��
2019/06/26,18:30,0.756,1.079,0.731,1.316,0.980,0.437,0.749,0.709,��,7.2,��
2019/06/26,18:40,0.757,1.078,0.732,1.316,0.981,0.436,0.748,0.708,��,7.5,��
2019/06/26,18:50,0.757,1.081,0.732,1.315,0.982,0.437,0.748,0.710,��,7.7,��
2019/06/26,19:00,0.757,1.080,0.734,1.313,0.983,0.437,0.748,0.710,��,8.5,��
2019/06/26,19:10,0.756,1.080,0.734,1.317,0.980,0.435,0.749,0.709,��,8.6,��
2019/06/26,19:20,0.756,1.081,0.734,1.313,0.980,0.436,0.748,0.711,��,7.2,��
2019/06/26,19:30,0.758,1.078,0.735,1.316,0.980,0.436,0.749,0.710,��,8.1,��
2019/06/26,19:40,0.756,1.082,0.734,1.315,0.982,0.436,0.749,0.709,��,8.6,��
2019/06/26,19:50,0.758,1.080,0.734,1.318,0.982,0.436,0.749,0.709,��,7.4,��
2019/06/26,20:00,0.757,1.081,0.734,1.313,0.981,0.435,0.748,0.711,��,7.4,��
2019/06/26,20:10,0.758,1.079,0.734,1.318,0.979,0.436,0.748,0.710,��,7.0,��
2019/06/26,20:20,0.757,1.082,0.734,1.316,0.979,0.435,0.751,0.710,��,6.6,��
2019/06/26,20:30,0.756,1.080,0.734,1.318,0.983,0.436,0.750,0.710,��,6.4,��
2019/06/26,20:40,0.757,1.080,0.733,1.319,0.983,0.435,0.749,0.710,��,6.8,��
2019/06/26,20:50,0.757,1.080,0.734,1.310,0.980,0.436,0.750,0.709,��,6.4,��
2019/06/26,21:00,0.758,1.081,0.735,1.311,0.980,0.436,0.749,0.709,��,6.6,��
2019/06/26,21:10,0.758,1.079,0.733,1.311,0.981,0.434,0.752,0.710,��,6.0,��
2019/06/26,21:20,0.759,1.083,0.733,1.316,0.981,0.436,0.750,0.710,��쐼,5.6,��
2019/06/26,21:30,0.759,1.080,0.734,1.318,0.981,0.436,0.749,0.709,��,5.2,��
2019/06/26,21:40,0.758,1.081,0.733,1.320,0.981,0.437,0.750,0.710,��,5.2,��
2019/06/26,21:50,0.759,1.080,0.735,1.319,0.979,0.436,0.749,0.711,��,5.0,��
2019/06/26,22:00,0.758,1.079,0.732,1.319,0.980,0.436,0.750,0.710,��,4.7,��
2019/06/26,22:10,0.760,1.081,0.734,1.319,0.982,0.435,0.750,0.709,��쐼,4.9,��
2019/06/26,22:20,0.758,1.078,0.733,1.318,0.979,0.436,0.749,0.710,��쐼,4.4,��
2019/06/26,22:30,0.758,1.080,0.732,1.319,0.981,0.436,0.751,0.711,��쐼,4.3,��
2019/06/26,22:40,0.759,1.080,0.733,1.320,0.981,0.436,0.749,0.710,��쐼,3.4,��
2019/06/26,22:50,0.756,1.081,0.732,1.319,0.978,0.436,0.749,0.710,��쐼,2.2,��
2019/06/26,23:00,0.760,1.076,0.733,1.318,0.982,0.436,0.750,0.708,��,2.3,��
2019/06/26,23:10,0.760,1.079,0.733,1.319,0.980,0.436,0.750,0.710,��,4.2,��
2019/06/26,23:20,0.760,1.082,0.732,1.318,0.981,0.435,0.751,0.710,��,5.2,��
2019/06/26,23:30,0.757,1.082,0.735,1.322,0.981,0.436,0.748,0.710,��쐼,4.8,��
2019/06/26,23:40,0.759,1.080,0.733,1.318,0.979,0.436,0.750,0.711,��쐼,5.1,��
2019/06/26,23:50,0.756,1.082,0.734,1.322,0.980,0.437,0.750,0.709,��쐼,4.1,��
